Location: Unspecified
(33.6281°N, 0.0000°E)
Time: 06:02:26
(UTC+00:00)

DIWATA 2B (PO-101) - Visible Passes

Search period start: 05 April 2026 00:00
Search period end: 15 April 2026 00:00
Orbit: 557 x 576 km, 98.1° (Epoch: 29 March)

Date Brightness Start Highest point End Pass type
(mag) Time Alt. Az. Time Alt. Az. Time Alt. Az.
5 Apr ? 05:01:53 10° ESE 05:04:42 19° ENE 05:07:32 10° NNE visible
5 Apr ? 19:56:22 10° WNW 19:56:52 10° WNW 19:57:22 10° WNW visible
6 Apr ? 05:02:39 10° ESE 05:05:29 19° ENE 05:08:20 10° NNE visible
6 Apr ? 19:57:28 10° WNW 19:57:39 10° WNW 19:57:50 10° WNW visible
7 Apr ? 05:03:24 10° ESE 05:06:16 19° ENE 05:09:09 10° NNE visible
8 Apr ? 05:04:09 10° ESE 05:07:03 20° ENE 05:09:57 10° NNE visible
9 Apr ? 05:04:53 10° ESE 05:07:49 20° ENE 05:10:45 10° NNE visible
10 Apr ? 05:05:38 10° ESE 05:08:35 20° ENE 05:11:33 10° NNE visible
11 Apr ? 05:06:22 10° ESE 05:09:21 21° ENE 05:12:20 10° NNE visible
12 Apr ? 05:07:06 10° ESE 05:10:06 21° ENE 05:13:07 10° NNE visible
